Overview Statistics Trail Chart Weather Telemetry Raw packets
 

This is the latest recevied weather packets stored in our database for station/object W8KJR. If no packets are shown the sender has not sent any weather packets the latest 10 day(s).

<< 3 4 5 6 7 8 9 >>
Time Temp. Humidity Pressure Rain* Wind** Luminosity Snow
1777924223 25.56° C 48% 1002.5 hPa 0 mm - - -
1777923317 24.44° C 48% 1002.8 hPa 0 mm - - -
1777922412 24.44° C 52% 1002.8 hPa 0 mm - - -
1777921507 25° C 50% 1003.3 hPa 0 mm - - -
1777920603 24.44° C 53% 1003.6 hPa 0 mm - - -
1777919703 22.78° C 53% 1003.9 hPa 0 mm - - -
1777918800 23.33° C 54% 1004.1 hPa 0 mm - - -
1777917901 23.33° C 52% 1004.2 hPa 0 mm - - -
1777916998 22.78° C 55% 1004.3 hPa 0 mm - - -
1777916095 22.22° C 54% 1004.6 hPa 0 mm - - -
1777915191 21.67° C 55% 1004.4 hPa 0 mm - - -
1777914287 21.11° C 55% 1004.9 hPa 0 mm - - -
1777913384 21.11° C 56% 1004.9 hPa 0 mm - - -
1777912484 20.56° C 57% 1005.1 hPa 0 mm - - -
1777911579 20° C 56% 1005.4 hPa 0 mm - - -
1777910676 19.44° C 58% 1005.5 hPa 0 mm - - -
1777909773 19.44° C 60% 1005.8 hPa 0 mm - - -
1777908870 18.33° C 58% 1005.9 hPa 0 mm - - -
1777907966 18.89° C 61% 1006 hPa 0 mm - - -
1777907066 18.33° C 59% 1005.8 hPa 0 mm - - -
1777906163 17.78° C 58% 1006 hPa 0 mm - - -
1777905259 17.22° C 62% 1005.9 hPa 0 mm - - -
1777904356 17.22° C 61% 1006 hPa 0 mm - - -
1777903451 16.11° C 62% 1005.9 hPa 0 mm - - -
1777902549 15.56° C 63% 1006.2 hPa 0 mm - - -

* Rain latest hour (hover to see other rain measurements)
** Current wind speed in m/s (hover to see current wind gust speed)